owner,sensor,date,latitude,longitude,vertical_datum,wind_speed,wind_to_direction,wind_speed_of_gust,qcFlag 
DISL,ioos:station:DISL:BSCA:1,2013-09-01T00:00:00Z,30.3288,-87.8293,0.0,2.3,314.0,99.0,'11111222,11111222,11144222' 
DISL,ioos:station:DISL:BSCA:1,2013-09-01T00:30:00Z,30.3288,-87.8293,0.0,2.3,241.0,99.0,'11111222,11111222,11144222' 
DISL,ioos:station:DISL:BSCA:1,2013-09-01T01:00:00Z,30.3288,-87.8293,0.0,3.2,264.0,99.0,'11111222,11111222,11144222' 
DISL,ioos:station:DISL:BSCA:1,2013-09-01T01:30:00Z,30.3288,-87.8293,0.0,2.3,258.0,99.0,'11111222,11111222,11144222' 
DISL,ioos:station:DISL:BSCA:1,2013-09-01T02:00:00Z,30.3288,-87.8293,0.0,3.0,249.0,99.0,'11111222,11111222,11144222' 
DISL,ioos:station:DISL:BSCA:1,2013-09-01T02:30:00Z,30.3288,-87.8293,0.0,2.8,278.0,99.0,'11111222,11111222,11144222' 
DISL,ioos:station:DISL:BSCA:1,2013-09-01T03:00:00Z,30.3288,-87.8293,0.0,2.9,261.0,99.0,'11111222,11111222,11144222' 
DISL,ioos:station:DISL:BSCA:1,2013-09-01T03:30:00Z,30.3288,-87.8293,0.0,2.6,243.0,99.0,'11111222,11111222,11144222' 
DISL,ioos:station:DISL:BSCA:1,2013-09-01T04:00:00Z,30.3288,-87.8293,0.0,3.1,244.0,99.0,'11111222,11111222,11144222' 
DISL,ioos:station:DISL:BSCA:1,2013-09-01T04:30:00Z,30.3288,-87.8293,0.0,3.1,236.0,99.0,'11111222,11111222,11144222' 
DISL,ioos:station:DISL:BSCA:1,2013-09-01T05:00:00Z,30.3288,-87.8293,0.0,3.4,246.0,99.0,'11111222,11111222,11144222' 
DISL,ioos:station:DISL:BSCA:1,2013-09-01T05:30:00Z,30.3288,-87.8293,0.0,4.0,234.0,99.0,'11111222,11111222,11144222' 
DISL,ioos:station:DISL:BSCA:1,2013-09-01T06:00:00Z,30.3288,-87.8293,0.0,4.5,222.0,99.0,'11111222,11111222,11144222' 
DISL,ioos:station:DISL:BSCA:1,2013-09-01T06:30:00Z,30.3288,-87.8293,0.0,4.6,226.0,99.0,'11111222,11111222,11144222' 
DISL,ioos:station:DISL:BSCA:1,2013-09-01T07:00:00Z,30.3288,-87.8293,0.0,4.8,242.0,99.0,'11111222,11111222,11144222' 
DISL,ioos:station:DISL:BSCA:1,2013-09-01T07:30:00Z,30.3288,-87.8293,0.0,4.9,253.0,99.0,'11111222,11111222,11144222' 
DISL,ioos:station:DISL:BSCA:1,2013-09-01T08:00:00Z,30.3288,-87.8293,0.0,4.5,257.0,99.0,'11111222,11111222,11144222' 
DISL,ioos:station:DISL:BSCA:1,2013-09-01T08:30:00Z,30.3288,-87.8293,0.0,5.1,264.0,99.0,'11111222,11111222,11144222' 
DISL,ioos:station:DISL:BSCA:1,2013-09-01T09:00:00Z,30.3288,-87.8293,0.0,5.1,267.0,99.0,'11111222,11111222,11144222' 
DISL,ioos:station:DISL:BSCA:1,2013-09-01T09:30:00Z,30.3288,-87.8293,0.0,5.9,277.0,99.0,'11111222,11111222,11144222' 
DISL,ioos:station:DISL:BSCA:1,2013-09-01T10:00:00Z,30.3288,-87.8293,0.0,5.7,281.0,99.0,'11111222,11111222,11144222' 
DISL,ioos:station:DISL:BSCA:1,2013-09-01T10:30:00Z,30.3288,-87.8293,0.0,5.6,299.0,99.0,'11111222,11111222,11144222' 
DISL,ioos:station:DISL:BSCA:1,2013-09-01T11:00:00Z,30.3288,-87.8293,0.0,5.6,289.0,99.0,'11111222,11111222,11144222' 
DISL,ioos:station:DISL:BSCA:1,2013-09-01T11:30:00Z,30.3288,-87.8293,0.0,4.7,310.0,99.0,'11111222,11111222,11144222' 
DISL,ioos:station:DISL:BSCA:1,2013-09-01T12:00:00Z,30.3288,-87.8293,0.0,3.5,306.0,99.0,'11111222,11111222,11144222' 
DISL,ioos:station:DISL:BSCA:1,2013-09-01T12:30:00Z,30.3288,-87.8293,0.0,3.0,293.0,99.0,'11111222,11111222,11144222' 
DISL,ioos:station:DISL:BSCA:1,2013-09-01T13:00:00Z,30.3288,-87.8293,0.0,4.1,295.0,99.0,'11111222,11111222,11144222' 
DISL,ioos:station:DISL:BSCA:1,2013-09-01T13:30:00Z,30.3288,-87.8293,0.0,4.2,297.0,99.0,'11111222,11111222,11144222' 
DISL,ioos:station:DISL:BSCA:1,2013-09-01T14:00:00Z,30.3288,-87.8293,0.0,4.5,297.0,99.0,'11111222,11111222,11144222' 
DISL,ioos:station:DISL:BSCA:1,2013-09-01T14:30:00Z,30.3288,-87.8293,0.0,4.1,292.0,99.0,'11111222,11111222,11144222' 
DISL,ioos:station:DISL:BSCA:1,2013-09-01T15:00:00Z,30.3288,-87.8293,0.0,3.4,289.0,99.0,'11111222,11111222,11144222' 
DISL,ioos:station:DISL:BSCA:1,2013-09-01T15:30:00Z,30.3288,-87.8293,0.0,3.3,294.0,99.0,'11111222,11111222,11144222' 
DISL,ioos:station:DISL:BSCA:1,2013-09-01T16:00:00Z,30.3288,-87.8293,0.0,2.4,294.0,99.0,'11111222,11111222,11144222' 
DISL,ioos:station:DISL:BSCA:1,2013-09-01T16:30:00Z,30.3288,-87.8293,0.0,3.0,272.0,99.0,'11111222,11111222,11144222' 
DISL,ioos:station:DISL:BSCA:1,2013-09-01T17:00:00Z,30.3288,-87.8293,0.0,3.5,258.0,99.0,'11111222,11111222,11144222' 
DISL,ioos:station:DISL:BSCA:1,2013-09-01T17:30:00Z,30.3288,-87.8293,0.0,3.8,256.0,99.0,'11111222,11111222,11144222' 
DISL,ioos:station:DISL:BSCA:1,2013-09-01T18:00:00Z,30.3288,-87.8293,0.0,5.1,246.0,99.0,'11111222,11111222,11144222' 
DISL,ioos:station:DISL:BSCA:1,2013-09-01T18:30:00Z,30.3288,-87.8293,0.0,5.5,267.0,99.0,'11111222,11111222,11144222' 
DISL,ioos:station:DISL:BSCA:1,2013-09-01T19:00:00Z,30.3288,-87.8293,0.0,5.0,260.0,99.0,'11111222,11111222,11144222' 
DISL,ioos:station:DISL:BSCA:1,2013-09-01T19:30:00Z,30.3288,-87.8293,0.0,5.0,244.0,99.0,'11111222,11111222,11144222' 
DISL,ioos:station:DISL:BSCA:1,2013-09-01T20:00:00Z,30.3288,-87.8293,0.0,4.9,237.0,99.0,'11111222,11111222,11144222' 
DISL,ioos:station:DISL:BSCA:1,2013-09-01T20:30:00Z,30.3288,-87.8293,0.0,5.9,239.0,99.0,'11111222,11111222,11144222' 
DISL,ioos:station:DISL:BSCA:1,2013-09-01T21:00:00Z,30.3288,-87.8293,0.0,6.9,240.0,99.0,'11111222,11111222,11144222' 
DISL,ioos:station:DISL:BSCA:1,2013-09-01T21:30:00Z,30.3288,-87.8293,0.0,6.3,237.0,99.0,'11111222,11111222,11144222' 
DISL,ioos:station:DISL:BSCA:1,2013-09-01T22:00:00Z,30.3288,-87.8293,0.0,5.4,244.0,99.0,'11111222,11111222,11144222' 
DISL,ioos:station:DISL:BSCA:1,2013-09-01T22:30:00Z,30.3288,-87.8293,0.0,4.3,244.0,99.0,'11111222,11111222,11144222' 
DISL,ioos:station:DISL:BSCA:1,2013-09-01T23:00:00Z,30.3288,-87.8293,0.0,3.7,243.0,99.0,'11111222,11111222,11144222' 
DISL,ioos:station:DISL:BSCA:1,2013-09-01T23:30:00Z,30.3288,-87.8293,0.0,3.4,243.0,99.0,'11111222,11111222,11144222' 
DISL,ioos:station:DISL:BSCA:1,2013-09-02T00:00:00Z,30.3288,-87.8293,0.0,3.2,239.0,99.0,'11111222,11111222,11144222' 
DISL,ioos:station:DISL:BSCA:1,2013-09-02T00:30:00Z,30.3288,-87.8293,0.0,2.2,215.0,99.0,'11111222,11111222,11144222' 
DISL,ioos:station:DISL:BSCA:1,2013-09-02T01:00:00Z,30.3288,-87.8293,0.0,3.0,231.0,99.0,'11111222,11111222,11144222' 
DISL,ioos:station:DISL:BSCA:1,2013-09-02T01:30:00Z,30.3288,-87.8293,0.0,1.8,229.0,99.0,'11111222,11111222,11144222' 
DISL,ioos:station:DISL:BSCA:1,2013-09-02T02:00:00Z,30.3288,-87.8293,0.0,2.0,227.0,99.0,'11111222,11111222,11144222' 
DISL,ioos:station:DISL:BSCA:1,2013-09-02T02:30:00Z,30.3288,-87.8293,0.0,1.1,31.0,99.0,'11111222,11111222,11144222' 
DISL,ioos:station:DISL:BSCA:1,2013-09-02T03:00:00Z,30.3288,-87.8293,0.0,2.3,269.0,99.0,'11111222,11111222,11144222' 
DISL,ioos:station:DISL:BSCA:1,2013-09-02T03:30:00Z,30.3288,-87.8293,0.0,4.1,258.0,99.0,'11111222,11111222,11144222' 
DISL,ioos:station:DISL:BSCA:1,2013-09-02T04:00:00Z,30.3288,-87.8293,0.0,4.7,248.0,99.0,'11111222,11111222,11144222' 
DISL,ioos:station:DISL:BSCA:1,2013-09-02T04:30:00Z,30.3288,-87.8293,0.0,4.1,242.0,99.0,'11111222,11111222,11144222' 
DISL,ioos:station:DISL:BSCA:1,2013-09-02T05:00:00Z,30.3288,-87.8293,0.0,4.9,219.0,99.0,'11111222,11111222,11144222' 
DISL,ioos:station:DISL:BSCA:1,2013-09-02T05:30:00Z,30.3288,-87.8293,0.0,5.7,210.0,99.0,'11111222,11111222,11144222' 
DISL,ioos:station:DISL:BSCA:1,2013-09-02T06:00:00Z,30.3288,-87.8293,0.0,5.9,205.0,99.0,'11111222,11111222,11144222' 
DISL,ioos:station:DISL:BSCA:1,2013-09-02T06:30:00Z,30.3288,-87.8293,0.0,6.9,206.0,99.0,'11111222,11111222,11144222' 
DISL,ioos:station:DISL:BSCA:1,2013-09-02T07:00:00Z,30.3288,-87.8293,0.0,6.2,211.0,99.0,'11111222,11111222,11144222' 
DISL,ioos:station:DISL:BSCA:1,2013-09-02T07:30:00Z,30.3288,-87.8293,0.0,5.9,214.0,99.0,'11111222,11111222,11144222' 
DISL,ioos:station:DISL:BSCA:1,2013-09-02T08:00:00Z,30.3288,-87.8293,0.0,5.3,220.0,99.0,'11111222,11111222,11144222' 
DISL,ioos:station:DISL:BSCA:1,2013-09-02T08:30:00Z,30.3288,-87.8293,0.0,5.4,218.0,99.0,'11111222,11111222,11144222' 
DISL,ioos:station:DISL:BSCA:1,2013-09-02T09:00:00Z,30.3288,-87.8293,0.0,5.1,227.0,99.0,'11111222,11111222,11144222' 
DISL,ioos:station:DISL:BSCA:1,2013-09-02T09:30:00Z,30.3288,-87.8293,0.0,5.1,231.0,99.0,'11111222,11111222,11144222' 
DISL,ioos:station:DISL:BSCA:1,2013-09-02T10:00:00Z,30.3288,-87.8293,0.0,4.7,247.0,99.0,'11111222,11111222,11144222' 
DISL,ioos:station:DISL:BSCA:1,2013-09-02T10:30:00Z,30.3288,-87.8293,0.0,4.6,253.0,99.0,'11111222,11111222,11144222' 
DISL,ioos:station:DISL:BSCA:1,2013-09-02T11:00:00Z,30.3288,-87.8293,0.0,4.8,240.0,99.0,'11111222,11111222,11144222' 
DISL,ioos:station:DISL:BSCA:1,2013-09-02T11:30:00Z,30.3288,-87.8293,0.0,5.3,257.0,99.0,'11111222,11111222,11144222' 
DISL,ioos:station:DISL:BSCA:1,2013-09-02T12:00:00Z,30.3288,-87.8293,0.0,5.2,247.0,99.0,'11111222,11111222,11144222' 
DISL,ioos:station:DISL:BSCA:1,2013-09-02T12:30:00Z,30.3288,-87.8293,0.0,5.7,245.0,99.0,'11111222,11111222,11144222' 
DISL,ioos:station:DISL:BSCA:1,2013-09-02T13:00:00Z,30.3288,-87.8293,0.0,4.7,281.0,99.0,'11111222,11111222,11144222' 
DISL,ioos:station:DISL:BSCA:1,2013-09-02T13:30:00Z,30.3288,-87.8293,0.0,6.0,291.0,99.0,'11111222,11111222,11144222' 
DISL,ioos:station:DISL:BSCA:1,2013-09-02T14:00:00Z,30.3288,-87.8293,0.0,6.2,304.0,99.0,'11111222,11111222,11144222' 
DISL,ioos:station:DISL:BSCA:1,2013-09-02T14:30:00Z,30.3288,-87.8293,0.0,4.5,329.0,99.0,'11111222,11111222,11144222' 
DISL,ioos:station:DISL:BSCA:1,2013-09-02T15:00:00Z,30.3288,-87.8293,0.0,1.8,136.0,99.0,'11111222,11111222,11144222' 
DISL,ioos:station:DISL:BSCA:1,2013-09-02T15:30:00Z,30.3288,-87.8293,0.0,7.0,179.0,99.0,'11111222,11111222,11144222' 
DISL,ioos:station:DISL:BSCA:1,2013-09-02T16:00:00Z,30.3288,-87.8293,0.0,4.7,200.0,99.0,'11111222,11111222,11144222' 
DISL,ioos:station:DISL:BSCA:1,2013-09-02T16:30:00Z,30.3288,-87.8293,0.0,4.5,231.0,99.0,'11111222,11111222,11144222' 
DISL,ioos:station:DISL:BSCA:1,2013-09-02T17:00:00Z,30.3288,-87.8293,0.0,3.7,221.0,99.0,'11111222,11111222,11144222' 
DISL,ioos:station:DISL:BSCA:1,2013-09-02T17:30:00Z,30.3288,-87.8293,0.0,4.0,212.0,99.0,'11111222,11111222,11144222' 
DISL,ioos:station:DISL:BSCA:1,2013-09-02T18:00:00Z,30.3288,-87.8293,0.0,2.3,217.0,99.0,'11111222,11111222,11144222' 
DISL,ioos:station:DISL:BSCA:1,2013-09-02T18:30:00Z,30.3288,-87.8293,0.0,2.6,221.0,99.0,'11111222,11111222,11144222' 
DISL,ioos:station:DISL:BSCA:1,2013-09-02T19:00:00Z,30.3288,-87.8293,0.0,4.6,243.0,99.0,'11111222,11111222,11144222' 
DISL,ioos:station:DISL:BSCA:1,2013-09-02T19:30:00Z,30.3288,-87.8293,0.0,5.5,244.0,99.0,'11111222,11111222,11144222' 
DISL,ioos:station:DISL:BSCA:1,2013-09-02T20:00:00Z,30.3288,-87.8293,0.0,5.5,236.0,99.0,'11111222,11111222,11144222' 
DISL,ioos:station:DISL:BSCA:1,2013-09-02T20:30:00Z,30.3288,-87.8293,0.0,5.0,232.0,99.0,'11111222,11111222,11144222' 
DISL,ioos:station:DISL:BSCA:1,2013-09-02T21:00:00Z,30.3288,-87.8293,0.0,4.3,236.0,99.0,'11111222,11111222,11144222' 
DISL,ioos:station:DISL:BSCA:1,2013-09-02T21:30:00Z,30.3288,-87.8293,0.0,4.6,239.0,99.0,'11111222,11111222,11144222' 
DISL,ioos:station:DISL:BSCA:1,2013-09-02T22:00:00Z,30.3288,-87.8293,0.0,4.9,208.0,99.0,'11111222,11111222,11144222' 
DISL,ioos:station:DISL:BSCA:1,2013-09-02T22:30:00Z,30.3288,-87.8293,0.0,5.4,202.0,99.0,'11111222,11111222,11144222' 
DISL,ioos:station:DISL:BSCA:1,2013-09-02T23:00:00Z,30.3288,-87.8293,0.0,4.4,190.0,99.0,'11111222,11111222,11144222' 
DISL,ioos:station:DISL:BSCA:1,2013-09-02T23:30:00Z,30.3288,-87.8293,0.0,3.6,161.0,99.0,'11111222,11111222,11144222' 
DISL,ioos:station:DISL:BSCA:1,2013-09-03T00:00:00Z,30.3288,-87.8293,0.0,4.1,160.0,99.0,'11111222,11111222,11144222' 
DISL,ioos:station:DISL:BSCA:1,2013-09-03T00:30:00Z,30.3288,-87.8293,0.0,4.2,177.0,99.0,'11111222,11111222,11144222' 
DISL,ioos:station:DISL:BSCA:1,2013-09-03T01:00:00Z,30.3288,-87.8293,0.0,5.4,187.0,99.0,'11111222,11111222,11144222' 
DISL,ioos:station:DISL:BSCA:1,2013-09-03T01:30:00Z,30.3288,-87.8293,0.0,5.1,191.0,99.0,'11111222,11111222,11144222' 
DISL,ioos:station:DISL:BSCA:1,2013-09-03T02:00:00Z,30.3288,-87.8293,0.0,4.3,191.0,99.0,'11111222,11111222,11144222' 
DISL,ioos:station:DISL:BSCA:1,2013-09-03T02:30:00Z,30.3288,-87.8293,0.0,4.1,189.0,99.0,'11111222,11111222,11144222' 
DISL,ioos:station:DISL:BSCA:1,2013-09-03T03:00:00Z,30.3288,-87.8293,0.0,4.4,205.0,99.0,'11111222,11111222,11144222' 
DISL,ioos:station:DISL:BSCA:1,2013-09-03T03:30:00Z,30.3288,-87.8293,0.0,4.1,208.0,99.0,'11111222,11111222,11144222' 
DISL,ioos:station:DISL:BSCA:1,2013-09-03T04:00:00Z,30.3288,-87.8293,0.0,4.0,224.0,99.0,'11111222,11111222,11144222' 
DISL,ioos:station:DISL:BSCA:1,2013-09-03T04:30:00Z,30.3288,-87.8293,0.0,4.6,212.0,99.0,'11111222,11111222,11144222' 
DISL,ioos:station:DISL:BSCA:1,2013-09-03T05:00:00Z,30.3288,-87.8293,0.0,4.6,211.0,99.0,'11111222,11111222,11144222' 
DISL,ioos:station:DISL:BSCA:1,2013-09-03T05:30:00Z,30.3288,-87.8293,0.0,5.3,213.0,99.0,'11111222,11111222,11144222' 
DISL,ioos:station:DISL:BSCA:1,2013-09-03T06:00:00Z,30.3288,-87.8293,0.0,5.5,216.0,99.0,'11111222,11111222,11144222' 
DISL,ioos:station:DISL:BSCA:1,2013-09-03T06:30:00Z,30.3288,-87.8293,0.0,5.2,222.0,99.0,'11111222,11111222,11144222' 
DISL,ioos:station:DISL:BSCA:1,2013-09-03T07:00:00Z,30.3288,-87.8293,0.0,4.9,224.0,99.0,'11111222,11111222,11144222' 
DISL,ioos:station:DISL:BSCA:1,2013-09-03T07:30:00Z,30.3288,-87.8293,0.0,5.4,220.0,99.0,'11111222,11111222,11144222' 
DISL,ioos:station:DISL:BSCA:1,2013-09-03T08:00:00Z,30.3288,-87.8293,0.0,5.2,228.0,99.0,'11111222,11111222,11144222' 
DISL,ioos:station:DISL:BSCA:1,2013-09-03T08:30:00Z,30.3288,-87.8293,0.0,4.6,222.0,99.0,'11111222,11111222,11144222' 
DISL,ioos:station:DISL:BSCA:1,2013-09-03T09:00:00Z,30.3288,-87.8293,0.0,4.5,226.0,99.0,'11111222,11111222,11144222' 
DISL,ioos:station:DISL:BSCA:1,2013-09-03T09:30:00Z,30.3288,-87.8293,0.0,5.0,271.0,99.0,'11111222,11111222,11144222' 
DISL,ioos:station:DISL:BSCA:1,2013-09-03T10:00:00Z,30.3288,-87.8293,0.0,2.7,273.0,99.0,'11111222,11111222,11144222' 
DISL,ioos:station:DISL:BSCA:1,2013-09-03T10:30:00Z,30.3288,-87.8293,0.0,2.1,290.0,99.0,'11111222,11111222,11144222' 
DISL,ioos:station:DISL:BSCA:1,2013-09-03T11:00:00Z,30.3288,-87.8293,0.0,5.4,295.0,99.0,'11111222,11111222,11144222' 
DISL,ioos:station:DISL:BSCA:1,2013-09-03T11:30:00Z,30.3288,-87.8293,0.0,6.4,306.0,99.0,'11111222,11111222,11144222' 
DISL,ioos:station:DISL:BSCA:1,2013-09-03T12:00:00Z,30.3288,-87.8293,0.0,2.4,37.0,99.0,'11111222,11111222,11144222' 
DISL,ioos:station:DISL:BSCA:1,2013-09-03T12:30:00Z,30.3288,-87.8293,0.0,1.7,153.0,99.0,'11111222,11111222,11144222' 
DISL,ioos:station:DISL:BSCA:1,2013-09-03T13:00:00Z,30.3288,-87.8293,0.0,3.5,184.0,99.0,'11111222,11111222,11144222' 
DISL,ioos:station:DISL:BSCA:1,2013-09-03T13:30:00Z,30.3288,-87.8293,0.0,5.3,187.0,99.0,'11111222,11111222,11144222' 
DISL,ioos:station:DISL:BSCA:1,2013-09-03T14:00:00Z,30.3288,-87.8293,0.0,2.9,222.0,99.0,'11111222,11111222,11144222' 
DISL,ioos:station:DISL:BSCA:1,2013-09-03T14:30:00Z,30.3288,-87.8293,0.0,4.7,228.0,99.0,'11111222,11111222,11144222' 
DISL,ioos:station:DISL:BSCA:1,2013-09-03T15:00:00Z,30.3288,-87.8293,0.0,4.0,232.0,99.0,'11111222,11111222,11144222' 
DISL,ioos:station:DISL:BSCA:1,2013-09-03T15:30:00Z,30.3288,-87.8293,0.0,3.4,254.0,99.0,'11111222,11111222,11144222' 
DISL,ioos:station:DISL:BSCA:1,2013-09-03T16:00:00Z,30.3288,-87.8293,0.0,2.7,250.0,99.0,'11111222,11111222,11144222' 
DISL,ioos:station:DISL:BSCA:1,2013-09-03T16:30:00Z,30.3288,-87.8293,0.0,2.6,241.0,99.0,'11111222,11111222,11144222' 
DISL,ioos:station:DISL:BSCA:1,2013-09-03T17:00:00Z,30.3288,-87.8293,0.0,3.3,240.0,99.0,'11111222,11111222,11144222' 
DISL,ioos:station:DISL:BSCA:1,2013-09-03T17:30:00Z,30.3288,-87.8293,0.0,3.1,237.0,99.0,'11111222,11111222,11144222' 
DISL,ioos:station:DISL:BSCA:1,2013-09-03T18:00:00Z,30.3288,-87.8293,0.0,3.6,229.0,99.0,'11111222,11111222,11144222' 
DISL,ioos:station:DISL:BSCA:1,2013-09-03T18:30:00Z,30.3288,-87.8293,0.0,4.9,212.0,99.0,'11111222,11111222,11144222' 
DISL,ioos:station:DISL:BSCA:1,2013-09-03T19:00:00Z,30.3288,-87.8293,0.0,5.6,205.0,99.0,'11111222,11111222,11144222' 
DISL,ioos:station:DISL:BSCA:1,2013-09-03T19:30:00Z,30.3288,-87.8293,0.0,5.2,203.0,99.0,'11111222,11111222,11144222' 
DISL,ioos:station:DISL:BSCA:1,2013-09-03T20:00:00Z,30.3288,-87.8293,0.0,5.6,196.0,99.0,'11111222,11111222,11144222' 
DISL,ioos:station:DISL:BSCA:1,2013-09-03T20:30:00Z,30.3288,-87.8293,0.0,5.0,193.0,99.0,'11111222,11111222,11144222' 
DISL,ioos:station:DISL:BSCA:1,2013-09-03T21:00:00Z,30.3288,-87.8293,0.0,5.4,181.0,99.0,'11111222,11111222,11144222' 
DISL,ioos:station:DISL:BSCA:1,2013-09-03T21:30:00Z,30.3288,-87.8293,0.0,4.7,190.0,99.0,'11111222,11111222,11144222' 
DISL,ioos:station:DISL:BSCA:1,2013-09-03T22:00:00Z,30.3288,-87.8293,0.0,3.1,151.0,99.0,'11111222,11111222,11144222' 
DISL,ioos:station:DISL:BSCA:1,2013-09-03T22:30:00Z,30.3288,-87.8293,0.0,6.2,51.0,99.0,'11111222,11111222,11144222' 
DISL,ioos:station:DISL:BSCA:1,2013-09-03T23:00:00Z,30.3288,-87.8293,0.0,5.3,313.0,99.0,'11111222,11111222,11144222' 
DISL,ioos:station:DISL:BSCA:1,2013-09-03T23:30:00Z,30.3288,-87.8293,0.0,6.4,327.0,99.0,'11111222,11111222,11144222' 
DISL,ioos:station:DISL:BSCA:1,2013-09-04T00:00:00Z,30.3288,-87.8293,0.0,2.1,304.0,99.0,'11111222,11111222,11144222' 
DISL,ioos:station:DISL:BSCA:1,2013-09-04T00:30:00Z,30.3288,-87.8293,0.0,1.7,352.0,99.0,'11111222,11111222,11144222' 
DISL,ioos:station:DISL:BSCA:1,2013-09-04T01:00:00Z,30.3288,-87.8293,0.0,4.2,92.0,99.0,'11111222,11111222,11144222' 
DISL,ioos:station:DISL:BSCA:1,2013-09-04T01:30:00Z,30.3288,-87.8293,0.0,4.1,120.0,99.0,'11111222,11111222,11144222' 
DISL,ioos:station:DISL:BSCA:1,2013-09-04T02:00:00Z,30.3288,-87.8293,0.0,2.6,162.0,99.0,'11111222,11111222,11144222' 
DISL,ioos:station:DISL:BSCA:1,2013-09-04T02:30:00Z,30.3288,-87.8293,0.0,2.7,49.0,99.0,'11111222,11111222,11144222' 
DISL,ioos:station:DISL:BSCA:1,2013-09-04T03:00:00Z,30.3288,-87.8293,0.0,2.5,57.0,99.0,'11111222,11111222,11144222' 
DISL,ioos:station:DISL:BSCA:1,2013-09-04T03:30:00Z,30.3288,-87.8293,0.0,2.4,103.0,99.0,'11111222,11111222,11144222' 
DISL,ioos:station:DISL:BSCA:1,2013-09-04T04:00:00Z,30.3288,-87.8293,0.0,4.0,37.0,99.0,'11111222,11111222,11144222' 
DISL,ioos:station:DISL:BSCA:1,2013-09-04T04:30:00Z,30.3288,-87.8293,0.0,3.0,43.0,99.0,'11111222,11111222,11144222' 
DISL,ioos:station:DISL:BSCA:1,2013-09-04T05:00:00Z,30.3288,-87.8293,0.0,3.2,55.0,99.0,'11111222,11111222,11144222' 
DISL,ioos:station:DISL:BSCA:1,2013-09-04T05:30:00Z,30.3288,-87.8293,0.0,3.4,44.0,99.0,'11111222,11111222,11144222' 
DISL,ioos:station:DISL:BSCA:1,2013-09-04T06:00:00Z,30.3288,-87.8293,0.0,2.6,62.0,99.0,'11111222,11111222,11144222' 
DISL,ioos:station:DISL:BSCA:1,2013-09-04T06:30:00Z,30.3288,-87.8293,0.0,2.5,44.0,99.0,'11111222,11111222,11144222' 
DISL,ioos:station:DISL:BSCA:1,2013-09-04T07:00:00Z,30.3288,-87.8293,0.0,3.0,41.0,99.0,'11111222,11111222,11144222' 
DISL,ioos:station:DISL:BSCA:1,2013-09-04T07:30:00Z,30.3288,-87.8293,0.0,3.6,43.0,99.0,'11111222,11111222,11144222' 
DISL,ioos:station:DISL:BSCA:1,2013-09-04T08:00:00Z,30.3288,-87.8293,0.0,3.9,56.0,99.0,'11111222,11111222,11144222' 
DISL,ioos:station:DISL:BSCA:1,2013-09-04T08:30:00Z,30.3288,-87.8293,0.0,3.9,63.0,99.0,'11111222,11111222,11144222' 
DISL,ioos:station:DISL:BSCA:1,2013-09-04T09:00:00Z,30.3288,-87.8293,0.0,3.8,65.0,99.0,'11111222,11111222,11144222' 
DISL,ioos:station:DISL:BSCA:1,2013-09-04T09:30:00Z,30.3288,-87.8293,0.0,3.8,62.0,99.0,'11111222,11111222,11144222' 
DISL,ioos:station:DISL:BSCA:1,2013-09-04T10:00:00Z,30.3288,-87.8293,0.0,3.3,64.0,99.0,'11111222,11111222,11144222' 
DISL,ioos:station:DISL:BSCA:1,2013-09-04T10:30:00Z,30.3288,-87.8293,0.0,3.5,58.0,99.0,'11111222,11111222,11144222' 
DISL,ioos:station:DISL:BSCA:1,2013-09-04T11:00:00Z,30.3288,-87.8293,0.0,3.4,55.0,99.0,'11111222,11111222,11144222' 
DISL,ioos:station:DISL:BSCA:1,2013-09-04T11:30:00Z,30.3288,-87.8293,0.0,3.5,60.0,99.0,'11111222,11111222,11144222' 
DISL,ioos:station:DISL:BSCA:1,2013-09-04T12:00:00Z,30.3288,-87.8293,0.0,3.2,60.0,99.0,'11111222,11111222,11144222' 
DISL,ioos:station:DISL:BSCA:1,2013-09-04T12:30:00Z,30.3288,-87.8293,0.0,3.2,60.0,99.0,'11111222,11111222,11144222' 
DISL,ioos:station:DISL:BSCA:1,2013-09-04T13:00:00Z,30.3288,-87.8293,0.0,3.0,62.0,99.0,'11111222,11111222,11144222' 
DISL,ioos:station:DISL:BSCA:1,2013-09-04T13:30:00Z,30.3288,-87.8293,0.0,2.3,63.0,99.0,'11111222,11111222,11144222' 
DISL,ioos:station:DISL:BSCA:1,2013-09-04T14:00:00Z,30.3288,-87.8293,0.0,2.1,76.0,99.0,'11111222,11111222,11144222' 
DISL,ioos:station:DISL:BSCA:1,2013-09-04T14:30:00Z,30.3288,-87.8293,0.0,1.1,87.0,99.0,'11111222,11111222,11144222' 
DISL,ioos:station:DISL:BSCA:1,2013-09-04T15:00:00Z,30.3288,-87.8293,0.0,1.9,141.0,99.0,'11111222,11111222,11144222' 
DISL,ioos:station:DISL:BSCA:1,2013-09-04T15:30:00Z,30.3288,-87.8293,0.0,1.2,145.0,99.0,'11111222,11111222,11144222' 
DISL,ioos:station:DISL:BSCA:1,2013-09-04T16:00:00Z,30.3288,-87.8293,0.0,2.5,148.0,99.0,'11111222,11111222,11144222' 
DISL,ioos:station:DISL:BSCA:1,2013-09-04T16:30:00Z,30.3288,-87.8293,0.0,2.1,173.0,99.0,'11111222,11111222,11144222' 
DISL,ioos:station:DISL:BSCA:1,2013-09-04T17:00:00Z,30.3288,-87.8293,0.0,1.8,185.0,99.0,'11111222,11111222,11144222' 
DISL,ioos:station:DISL:BSCA:1,2013-09-04T17:30:00Z,30.3288,-87.8293,0.0,2.0,209.0,99.0,'11111222,11111222,11144222' 
DISL,ioos:station:DISL:BSCA:1,2013-09-04T18:00:00Z,30.3288,-87.8293,0.0,2.5,208.0,99.0,'11111222,11111222,11144222' 
DISL,ioos:station:DISL:BSCA:1,2013-09-04T18:30:00Z,30.3288,-87.8293,0.0,2.8,206.0,99.0,'11111222,11111222,11144222' 
DISL,ioos:station:DISL:BSCA:1,2013-09-04T19:00:00Z,30.3288,-87.8293,0.0,2.1,212.0,99.0,'11111222,11111222,11144222' 
DISL,ioos:station:DISL:BSCA:1,2013-09-04T19:30:00Z,30.3288,-87.8293,0.0,3.7,198.0,99.0,'11111222,11111222,11144222' 
DISL,ioos:station:DISL:BSCA:1,2013-09-04T20:00:00Z,30.3288,-87.8293,0.0,4.3,161.0,99.0,'11111222,11111222,11144222' 
DISL,ioos:station:DISL:BSCA:1,2013-09-04T20:30:00Z,30.3288,-87.8293,0.0,5.1,168.0,99.0,'11111222,11111222,11144222' 
DISL,ioos:station:DISL:BSCA:1,2013-09-04T21:00:00Z,30.3288,-87.8293,0.0,5.2,168.0,99.0,'11111222,11111222,11144222' 
DISL,ioos:station:DISL:BSCA:1,2013-09-04T21:30:00Z,30.3288,-87.8293,0.0,5.0,171.0,99.0,'11111222,11111222,11144222' 
DISL,ioos:station:DISL:BSCA:1,2013-09-04T22:00:00Z,30.3288,-87.8293,0.0,4.2,172.0,99.0,'11111222,11111222,11144222' 
DISL,ioos:station:DISL:BSCA:1,2013-09-04T22:30:00Z,30.3288,-87.8293,0.0,3.8,177.0,99.0,'11111222,11111222,11144222' 
DISL,ioos:station:DISL:BSCA:1,2013-09-04T23:00:00Z,30.3288,-87.8293,0.0,3.5,186.0,99.0,'11111222,11111222,11144222' 
DISL,ioos:station:DISL:BSCA:1,2013-09-04T23:30:00Z,30.3288,-87.8293,0.0,3.6,183.0,99.0,'11111222,11111222,11144222' 
DISL,ioos:station:DISL:BSCA:1,2013-09-05T00:00:00Z,30.3288,-87.8293,0.0,3.6,193.0,99.0,'11111222,11111222,11144222' 
DISL,ioos:station:DISL:BSCA:1,2013-09-05T00:30:00Z,30.3288,-87.8293,0.0,4.4,197.0,99.0,'11111222,11111222,11144222' 
DISL,ioos:station:DISL:BSCA:1,2013-09-05T01:00:00Z,30.3288,-87.8293,0.0,4.0,184.0,99.0,'11111222,11111222,11144222' 
DISL,ioos:station:DISL:BSCA:1,2013-09-05T01:30:00Z,30.3288,-87.8293,0.0,3.6,180.0,99.0,'11111222,11111222,11144222' 
DISL,ioos:station:DISL:BSCA:1,2013-09-05T02:00:00Z,30.3288,-87.8293,0.0,3.8,187.0,99.0,'11111222,11111222,11144222' 
DISL,ioos:station:DISL:BSCA:1,2013-09-05T02:30:00Z,30.3288,-87.8293,0.0,5.0,188.0,99.0,'11111222,11111222,11144222' 
DISL,ioos:station:DISL:BSCA:1,2013-09-05T03:00:00Z,30.3288,-87.8293,0.0,4.3,185.0,99.0,'11111222,11111222,11144222' 
DISL,ioos:station:DISL:BSCA:1,2013-09-05T03:30:00Z,30.3288,-87.8293,0.0,3.3,187.0,99.0,'11111222,11111222,11144222' 
DISL,ioos:station:DISL:BSCA:1,2013-09-05T04:00:00Z,30.3288,-87.8293,0.0,1.5,170.0,99.0,'11111222,11111222,11144222' 
DISL,ioos:station:DISL:BSCA:1,2013-09-05T04:30:00Z,30.3288,-87.8293,0.0,1.7,130.0,99.0,'11111222,11111222,11144222' 
DISL,ioos:station:DISL:BSCA:1,2013-09-05T05:00:00Z,30.3288,-87.8293,0.0,1.7,79.0,99.0,'11111222,11111222,11144222' 
DISL,ioos:station:DISL:BSCA:1,2013-09-05T05:30:00Z,30.3288,-87.8293,0.0,2.1,69.0,99.0,'11111222,11111222,11144222' 